Location: Unspecified
(0.0000°N, 0.0000°E)
Time: 15:27:02
(UTC+00:00)

N. Korean satellite - Pass Details

Date: 17 April 2018
Orbit: 459 x 511 km, 97.2° (Epoch: 17 July)

Event Time Altitude Azimuth Distance (km) Brightness Sun altitude
Rises 05:31:29 0° 39° (NE) 2,467 11.0 -6.9°
Reaches altitude 10° 05:34:05 10° 61° (ENE) 1,596 10.6 -6.3°
Maximum altitude 05:36:17 16° 101° (E) 1,269 9.9 -5.7°
Drops below altitude 10° 05:38:29 10° 141° (SE) 1,603 9.6 -5.2°
Sets 05:41:06 0° 163° (SSE) 2,484 10.3 -4.6°
